Lexington Weather

Lexington, Massachusetts, USA

54°F
12/10/2019 3:54pm 
  • Lexington Conditions: Light rain, Overcast
  • Temperature: 54.3°F / 12.4°CColder 0.9°F than last hour.
  • Dew Point: 52.7°FDecreased 0.2°Fsince last hour.
  • Relative Humidity: 94%Increased 2.0% since last hour.
  • Wind: Wind from SSW SSW 2 mph, 10-min avg: 4 mph, gust: 8 mph
  • Barometer: 29.68 inFalling 0.02  inHg/hr Falling Slowly
  • Visibility: 10 miles
  • Rain Today: 0.04 in
  •   

Regional Weather Roundup
for Boston / Norton, MA

        
000
ASUS41 KBOX 101000
RWRBOX

REGIONAL WEATHER ROUNDUP
NATIONAL WEATHER SERVICE BOSTON/NORTON MA
500 AM EST TUE DEC 10 2019

NOTE:  "FAIR" INDICATES FEW OR NO CLOUDS BELOW 12,000 FEET WITH NO 
SIGNIFICANT WEATHER AND/OR OBSTRUCTIONS TO VISIBILITY.

MAZALL-101100-
EASTERN MASSACHUSETTS
  
CITY           SKY/WX    TMP DP  RH WIND       PRES   REMARKS
BOSTON         CLOUDY    58  52  80 SW18      29.70R                  
BEVERLY        CLOUDY    56  52  86 SW15      29.68R                  
LAWRENCE       CLOUDY    53  50  89 SW10      29.69R                  
BEDFORD        CLOUDY    54  50  86 S10       29.68R                  
BLUE HILL        N/A     54  52  93 SW23G31   29.69R                  
NORWOOD        CLOUDY    59  52  77 SW12G18   29.71R                  
MARSHFIELD     NOT AVBL                                               
PLYMOUTH       CLOUDY    56  54  93 SW18G31   29.73R                  
TAUNTON        CLOUDY    57  53  86 SW12      29.74R                  
NEW BEDFORD    CLOUDY    56  32  40 SW17G28   29.74R                  
$$

MAZALL-101100-
CAPE COD AND THE ISLANDS
  
CITY           SKY/WX    TMP DP  RH WIND       PRES   REMARKS
FALMOUTH       CLOUDY    59  57  94 SW26G40   29.76S FOG              
HYANNIS        NOT AVBL                                               
CHATHAM        CLOUDY    51  50  96 SW9G22    29.79R FOG              
PROVINCETOWN   CLOUDY    52  52 100 SW21G30   29.75R FOG              
NANTUCKET      CLOUDY    53  51  93 SW18      29.81R                  
MARTHAS VNYRD  CLOUDY    55  54  96 SW16      29.79R FOG              
$$
 
MAZALL-101100-
CENTRAL AND WESTERN MASSACHUSETTS
  
CITY           SKY/WX    TMP DP  RH WIND       PRES   REMARKS
WORCESTER      CLOUDY    50  48  93 SW20G30   29.69R                  
FITCHBURG      CLOUDY    52  47  83 SW8G18    29.68S                  
ORANGE         CLOUDY    50  46  86 S12       29.69R                  
SPRINGFIELD    CLOUDY    47  47 100 S12       29.69S                  
WESTFIELD      CLOUDY    48  46  93 S9        29.70S                  
NORTH ADAMS    CLOUDY    42  41  96 CALM      29.66R                  
PITTSFIELD     CLOUDY    48  45  89 S13G21    29.66S                  
$$
 
RIZALL-101100-
RHODE ISLAND
  
CITY           SKY/WX    TMP DP  RH WIND       PRES   REMARKS
PROVIDENCE     CLOUDY    57  54  89 SW21G29   29.75R                  
NEWPORT        CLOUDY    54  52  93 SW7G18    29.77R FOG              
BLOCK ISLAND   CLOUDY    53  52  96 SW15      29.79S FOG              
SMITHFIELD     CLOUDY    55  53  93 SW12G17   29.73R                  
WESTERLY       CLOUDY    57  51  80 SW13      29.79R                  
$$
 
CTZALL-101100-
CONNECTICUT
  
CITY           SKY/WX    TMP DP  RH WIND       PRES   REMARKS
BRADLEY INTL   CLOUDY    46  45  96 S9        29.71S                  
HARTFORD       CLOUDY    53  50  89 S7        29.73R                  
BRIDGEPORT     CLOUDY    51  49  92 W3        29.75S                  
DANBURY        MOCLDY    54  51  90 SW10      29.73S                  
GROTON         NOT AVBL                                               
NEW HAVEN      CLOUDY    54  51  90 SW7       29.75R                  
CHESTER        CLOUDY    54  54 100 SW9G20    29.76R                  
MERIDEN        CLOUDY    54  51  90 S8        29.73R                  
WILLIMANTIC    CLOUDY    55  53  93 VRB7      29.76R                  
OXFORD         CLOUDY    53  52  96 VRB7      29.74R                  
$$

MEZ002-015-021-024-NHZ003-005-008-011-012-014-VTZ005-008-101100-
NORTHERN NEW ENGLAND
  
CITY           SKY/WX    TMP DP  RH WIND       PRES   REMARKS
PORTLAND ME    CLOUDY    54  49  83 SW8       29.64R                  
BANGOR ME      CLOUDY    54  50  86 SW6       29.58R                  
CONCORD NH     CLOUDY    50  47  89 SW7       29.64R                  
MANCHESTER NH  CLOUDY    50  48  93 S3        29.65R                  
NASHUA NH      CLOUDY    52  51  97 VRB7      29.67R                  
PORTSMOUTH NH  NOT AVBL                                               
JAFFREY NH     CLOUDY    48  46  93 S8G18     29.67R FOG              
KEENE NH       CLOUDY    48  46  93 S9G17     29.67R                  
BURLINGTON VT  MOCLDY    50  44  80 S20G25    29.52S                  
MT. WASHINGTON LGT RAIN  34  34 100 W58G67      N/A  VSB 1/16WCI  16  
$$

NYZ052-076-101100-
EASTERN NEW YORK
  
CITY           SKY/WX    TMP DP  RH WIND       PRES   REMARKS
ALBANY         CLOUDY    48  44  86 S14       29.66R                  
NEW YORK CITY  CLOUDY    57  52  83 SW7       29.75S                  
$$
 
ANZALL-101100-
MARINE OBSERVATIONS
  
STATION/POSITION TIME  TEMP    WIND        PRES    VSBY  WAVE
                       AIR SEA DIR/SP/G                  HT/PER
                 (UTC) (F)     (DEG/KT/KT) (MB)    (MI)  (FT/S)
BOSTON BUOY      0850   54 48  210/ 17/ 23 1004.5          3/ 4
BUZZARDS BAY     0900   54     220/ 26/ 27 1008.0R
NANTUCKET SOUND  0940      43              1008.8R
MASS BAY-STELLWA 0904   51 46  240/ 14/ 16 1003.5R  1 7/8  5/ 8
ISLE OF SHOALS   0900   54     220/ 24/ 26 1003.4R
S OF BLOCK IS    0930      53                N/A          14/11
$$

......................KEY.........................
  SKY/WX - SKY CONDITION/PRESENT WEATHER
  TMP    - TEMPERATURE IN FAHRENHEIT
  DWPT   - DEWPOINT IN FAHRENHEIT
  RH     - RELATIVE HUMIDITY IN PERCENT
  WIND   - DIRECTION AND SPEED IN MPH
  PRES   - MEAN SEA LEVEL PRESSURE IN INCHES OF HG
  WCI    - WIND CHILL INDEX
  VSB    - VISIBILITY IN MILES
  HX     - HEAT INDEX
  TC     - TEMPERATURE IN CELSIUS
  VRB    - VARIABLE WIND DIRECTION
  N/A    - NOT AVAILABLE
  
      

Other recent Regional Weather Roundups

Tue Dec 10, 3:10pm

Tue Dec 10, 3:01pm

Tue Dec 10, 2:10pm

Tue Dec 10, 2:01pm

Tue Dec 10, 1:10pm

Tue Dec 10, 1:00pm

Tue Dec 10, 12:10pm

Tue Dec 10, 12:00pm

Tue Dec 10, 11:10am

Tue Dec 10, 11:00am

Tue Dec 10, 10:10am

Tue Dec 10, 10:00am

Tue Dec 10, 9:10am

Tue Dec 10, 9:01am

Tue Dec 10, 8:10am

Tue Dec 10, 8:00am

Tue Dec 10, 7:10am

Tue Dec 10, 7:00am

Tue Dec 10, 6:10am

Tue Dec 10, 6:00am

Tue Dec 10, 5:10am

Tue Dec 10, 4:10am

Tue Dec 10, 4:00am

Tue Dec 10, 3:10am

Tue Dec 10, 3:00am

Tue Dec 10, 2:10am

Tue Dec 10, 2:01am

Tue Dec 10, 1:10am

Tue Dec 10, 1:00am

Tue Dec 10, 12:10am

Tue Dec 10, 12:01am

Mon Dec 9, 11:10pm

Mon Dec 9, 11:01pm

Mon Dec 9, 10:10pm

Mon Dec 9, 10:00pm

Mon Dec 9, 9:10pm

Mon Dec 9, 9:01pm

Mon Dec 9, 8:10pm

Mon Dec 9, 8:01pm

Mon Dec 9, 7:10pm

Mon Dec 9, 7:00pm

Mon Dec 9, 6:10pm

Mon Dec 9, 6:00pm

Mon Dec 9, 5:10pm

Mon Dec 9, 5:01pm

Mon Dec 9, 4:10pm

Mon Dec 9, 4:01pm

Mon Dec 9, 3:10pm

Mon Dec 9, 3:01pm

Mon Dec 9, 2:10pm

Mon Dec 9, 2:00pm

Mon Dec 9, 1:10pm

Mon Dec 9, 1:00pm

Mon Dec 9, 12:10pm

Mon Dec 9, 12:00pm

Mon Dec 9, 11:10am

Mon Dec 9, 11:00am

Mon Dec 9, 10:10am

Mon Dec 9, 10:00am

Mon Dec 9, 9:10am

Mon Dec 9, 9:00am

Mon Dec 9, 8:10am

Mon Dec 9, 8:00am

Mon Dec 9, 7:10am

Mon Dec 9, 7:00am

Mon Dec 9, 6:10am

Mon Dec 9, 6:00am

Mon Dec 9, 5:10am

Mon Dec 9, 5:00am

Mon Dec 9, 4:10am

Mon Dec 9, 4:00am

Mon Dec 9, 3:10am

Mon Dec 9, 3:00am

Mon Dec 9, 2:10am

Mon Dec 9, 2:00am

Mon Dec 9, 1:10am

Mon Dec 9, 1:00am

Mon Dec 9, 12:10am

Mon Dec 9, 12:00am

Sun Dec 8, 11:10pm

Sun Dec 8, 11:00pm

Sun Dec 8, 10:10pm

Sun Dec 8, 10:01pm

Sun Dec 8, 9:10pm

Sun Dec 8, 9:01pm

Sun Dec 8, 8:10pm

Sun Dec 8, 8:00pm

Sun Dec 8, 7:10pm

Sun Dec 8, 7:00pm

Sun Dec 8, 6:10pm

Sun Dec 8, 6:01pm

Sun Dec 8, 5:10pm

Sun Dec 8, 5:00pm

Sun Dec 8, 4:10pm

Sun Dec 8, 4:01pm

Sun Dec 8, 3:10pm

Sun Dec 8, 3:01pm

Sun Dec 8, 2:10pm

Sun Dec 8, 2:01pm

Sun Dec 8, 1:10pm

Sun Dec 8, 1:00pm

Sun Dec 8, 12:10pm

Sun Dec 8, 12:01pm

Sun Dec 8, 11:10am

Sun Dec 8, 11:00am

Sun Dec 8, 10:10am

Sun Dec 8, 10:01am

Sun Dec 8, 9:10am

Sun Dec 8, 9:00am

Sun Dec 8, 8:10am

Sun Dec 8, 8:00am

Sun Dec 8, 7:10am

Sun Dec 8, 7:00am

Sun Dec 8, 6:10am

Sun Dec 8, 6:00am

Sun Dec 8, 5:10am

Sun Dec 8, 5:00am

Sun Dec 8, 4:10am

Sun Dec 8, 4:00am

Sun Dec 8, 3:10am

Sun Dec 8, 3:00am

Sun Dec 8, 2:10am

Sun Dec 8, 2:00am

Sun Dec 8, 1:10am

Sun Dec 8, 1:00am

Sun Dec 8, 12:10am

Sun Dec 8, 12:01am

Sat Dec 7, 11:10pm

Sat Dec 7, 11:00pm

Sat Dec 7, 10:10pm

Sat Dec 7, 10:00pm

Sat Dec 7, 9:10pm

Sat Dec 7, 9:00pm

Sat Dec 7, 8:10pm

Sat Dec 7, 8:00pm

Sat Dec 7, 7:10pm

Sat Dec 7, 7:00pm

Sat Dec 7, 6:10pm

Sat Dec 7, 6:00pm

Sat Dec 7, 5:10pm

Sat Dec 7, 5:00pm

Sat Dec 7, 4:10pm

Sat Dec 7, 4:00pm

Meta data:

ID: 34c80ab1-15b6-4b68-9b3b-eaf42bb592ce
Link: https://api.weather.gov/products/34c80ab1-15b6-4b68-9b3b-eaf42bb592ce